{"data":{"norad_id":59906,"intl_designator":"2024-100X","name":"STARLINK-31861","alt_names":[],"object_type":"PAYLOAD","status":"ACTIVE","operator":null,"country":"US","launch_date":"2024-05-28","launch_site_code":"AFETR","launch_vehicle":null,"mission":null,"orbit_class":"UNKNOWN","rcs_meters":null,"size_class":null,"mass_kg":null,"dimensions":null,"purposes":["comms"],"wikipedia_slug":null,"has_3d_model":false,"image_url":null,"decayed_at":null,"tle_current":{"epoch":"2026-09-21T21:05:12.602976Z","epoch_age_seconds":55377,"freshness":"FRESH","line1":"1 59906U 24100X   26264.87861809 -.00000018  00000+0  88776-5 0  9993","line2":"2 59906  42.9981  90.2833 0001271 271.6705  88.4001 15.27574727131236","mean_motion":15.27574727,"eccentricity":0.0001271,"inclination_deg":42.9981,"raan_deg":90.2833,"arg_perigee_deg":271.6705,"mean_anomaly_deg":88.4001,"bstar":8.8776e-6,"rev_number":13123,"period_min":94.267074110869,"perigee_km":482.1928265844,"apogee_km":483.93694410365,"semimajor_km":6861.201885344,"source":"CELESTRAK","updated_at":"2026-09-22T09:00:49.109973Z"}}}